Theta_e
325 325 322 323 323 322 319 317 316 316 314 312 310 309 308 306 304 302 303 308 309 307 304 301 300 300 301 302 303 303 304 305
322 321 320 318 319 318 315 313 311 310 309 312 311 309 307 306 310 313 315 315 315 316 315 314 306 301 301 302 303 303 304 306
320 320 319 319 318 314 313 312 309 310 310 310 310 307 306 308 310 313 314 315 315 314 314 310 303 303 303 302 302 302 302 302
321 319 318 317 316 315 313 311 309 307 307 305 305 308 308 309 312 314 314 314 314 311 304 302 300 299 302 305 304 303 303 303
321 321 319 318 317 315 312 311 310 308 307 307 309 310 314 313 313 312 309 309 304 300 299 298 299 300 304 303 304 304 305 305
320 320 320 320 318 315 313 311 310 308 306 309 314 312 311 311 311 309 306 304 300 298 299 299 299 299 299 300 301 304 305 306
320 319 319 319 318 315 314 312 310 308 307 312 311 309 310 310 309 308 307 304 301 300 300 299 298 298 298 299 299 300 301 302
320 319 318 318 318 316 314 313 311 310 311 308 305 309 309 308 307 307 307 307 300 300 300 299 299 299 300 301 301 302 303 303
320 319 318 318 317 317 315 313 312 311 311 308 310 310 308 306 306 307 307 305 301 300 300 299 298 298 300 301 303 303 302 302
319 317 316 317 316 316 316 314 312 311 310 308 310 310 308 308 308 307 307 304 301 300 300 299 298 299 300 301 301 301 300 300
315 314 313 314 314 315 315 314 313 312 310 309 310 309 308 309 307 307 308 306 303 302 301 301 302 301 301 301 302 302 301 299
313 312 311 311 312 312 312 312 311 310 309 309 309 308 308 307 307 306 306 305 304 304 303 303 302 302 301 301 301 302 302 301
313 311 310 309 309 308 309 309 309 308 308 308 307 305 305 305 305 305 305 304 304 304 303 302 303 303 302 302 302 302 301 301
309 308 307 307 306 306 306 307 307 306 305 303 303 303 302 301 301 301 302 302 302 301 300 300 300 300 301 301 301 301 301 301
306 305 304 303 303 302 302 301 300 299 299 299 298 297 296 295 294 294 294 293 293 293 293 294 294 294 294 296 298 297 297 298
305 304 302 301 300 300 300 299 298 297 296 294 292 291 290 290 290 289 290 290 290 290 290 290 291 291 292 293 292 292 292 291
304 302 301 300 299 297 296 294 293 292 291 290 290 289 289 289 289 289 288 288 289 288 288 289 289 289 289 289 290 290 289 289
302 301 301 299 296 293 292 292 291 290 290 290 289 289 288 288 288 288 288 288 287 288 287 287 287 288 288 289 288 288 288 288
301 300 299 297 293 291 291 291 290 290 289 289 288 288 287 287 287 287 286 286 287 286 286 286 286 287 286 286 286 287 287 288
Wind_Speed
7 9 6 5 4 3 3 5 5 4 4 4 4 4 4 5 2 2 7 13 17 17 19 20 21 20 20 19 20 20 20 20
9 10 6 3 2 3 4 4 4 4 5 3 5 6 3 6 10 11 17 20 23 28 25 21 21 20 22 23 23 23 21 18
8 5 5 5 3 5 5 5 7 8 9 10 8 5 1 2 7 12 20 26 33 29 26 20 18 18 18 16 18 20 19 15
7 4 2 3 5 7 6 8 7 9 7 7 6 4 4 4 12 15 21 29 34 28 18 14 13 13 14 17 17 16 20 16
5 4 2 3 6 7 8 9 9 8 10 9 8 5 9 9 10 14 17 21 20 20 20 20 17 14 12 15 14 17 16 17
6 3 3 7 9 10 6 12 7 11 10 10 8 6 3 7 12 17 17 19 19 18 17 18 18 17 16 16 16 13 14 15
8 6 3 4 9 11 10 12 10 11 11 8 7 4 7 11 14 16 20 22 22 20 21 21 21 20 20 19 18 19 18 18
5 7 6 5 5 12 14 10 9 10 12 7 4 5 10 13 16 21 25 29 21 19 20 23 23 23 23 23 22 21 19 18
13 11 10 10 8 8 14 10 7 13 13 6 5 10 11 16 22 26 25 22 22 23 23 26 26 24 23 23 23 24 25 22
14 15 15 13 10 9 11 11 6 11 11 5 9 12 17 19 21 23 30 28 26 24 24 26 26 25 25 26 25 27 27 28
15 15 16 14 12 10 6 3 2 8 9 8 10 17 23 20 30 35 27 26 26 26 27 27 27 27 27 26 31 31 30 31
13 15 16 14 13 10 5 4 1 6 6 9 16 19 25 30 23 24 22 21 24 27 28 30 31 30 29 30 29 33 37 35
11 12 14 16 16 14 8 5 1 3 8 13 20 22 18 17 16 16 17 20 23 24 28 30 29 30 30 31 33 33 34 37
10 12 13 13 11 9 7 4 6 10 14 15 13 16 19 20 21 24 26 29 32 35 37 39 39 40 40 40 38 34 35 37
8 9 10 11 12 12 11 11 12 13 13 15 16 19 21 21 22 24 25 26 27 27 27 29 32 35 37 37 33 37 41 39
6 7 8 9 10 10 11 12 14 15 15 16 17 19 21 21 23 24 25 25 26 27 29 30 31 30 29 30 35 42 44 46
4 5 6 7 9 11 11 13 15 16 15 15 17 20 22 23 26 28 28 29 30 32 31 32 32 33 33 31 31 35 41 43
3 3 5 7 9 11 13 13 13 15 15 17 19 21 23 25 27 28 30 31 32 31 33 34 35 34 33 34 36 37 41 44
2 2 4 6 9 12 11 12 13 14 16 18 20 23 25 27 28 29 31 33 31 35 34 34 35 36 37 40 39 39 40 41
Wind_Direction
134 130 159 206 225 230 198 193 183 164 173 176 181 187 210 245 254 8 11 355 345 342 346 343 339 338 332 326 316 313 307 310
140 157 164 188 221 236 237 216 201 185 172 136 219 229 280 323 323 334 329 329 335 336 334 324 327 332 332 334 326 321 313 310
150 149 176 192 227 228 243 238 220 218 217 219 234 246 132 36 358 335 341 342 334 326 321 314 314 315 314 325 326 323 320 307
149 159 192 196 227 231 237 239 231 227 227 209 163 114 116 291 317 340 346 340 323 325 320 314 314 323 323 323 323 328 328 319
128 167 215 274 232 247 202 243 238 224 201 203 187 207 285 319 344 349 352 337 333 332 329 331 329 322 319 309 309 320 321 315
49 20 279 242 234 250 218 222 240 240 221 213 263 290 333 343 345 354 346 337 335 337 331 327 323 317 311 303 304 297 288 288
20 6 320 273 240 228 230 241 229 259 240 261 280 292 341 356 349 342 345 335 321 331 331 327 320 317 313 308 302 297 289 282
32 26 1 329 272 253 236 239 226 241 272 279 284 333 333 336 341 344 327 320 310 316 318 321 320 316 316 312 307 306 303 296
38 24 20 5 331 278 244 210 233 239 262 285 288 298 312 326 340 335 320 302 301 313 316 319 319 317 311 306 296 291 289 284
34 27 27 13 1 342 282 225 230 254 247 225 263 306 312 322 325 316 316 300 295 304 307 309 314 316 309 304 300 301 300 292
36 30 31 28 18 13 6 201 288 273 257 230 275 296 311 293 308 315 305 301 299 305 308 310 311 309 308 303 296 296 296 297
44 40 38 35 49 41 50 59 5 333 310 290 303 301 301 310 322 319 308 304 304 309 310 307 304 302 299 295 289 288 290 292
59 54 52 49 52 52 59 60 66 280 281 294 300 313 316 324 317 304 296 287 286 289 290 291 292 294 295 294 293 288 283 281
61 54 50 46 41 37 21 341 316 306 303 310 323 306 307 309 306 303 301 298 296 294 294 293 293 292 290 288 283 288 289 285
56 52 48 41 35 25 18 3 345 341 337 331 330 331 326 323 317 313 311 313 314 316 316 316 312 307 302 301 309 301 295 291
53 48 42 34 23 17 6 350 346 337 332 329 329 324 326 329 325 325 325 323 321 314 308 307 304 309 311 308 303 301 302 305
65 48 34 20 9 359 347 338 339 334 343 342 338 332 330 331 330 329 327 324 318 319 319 316 315 311 313 316 313 304 302 304
74 36 17 5 352 341 341 347 340 342 343 336 337 334 334 331 327 327 324 322 322 320 316 314 313 312 312 307 307 308 304 304
118 17 355 345 332 339 347 337 338 336 335 334 334 332 331 327 326 325 324 323 321 319 320 318 316 314 312 310 310 311 306 305